Location: Boda
(47.1872°N, 9.5454°E)
Time: 08:32:55
(UTC+00:00)

Timation 2 Rocket - Pass Details

Date: 14 May 2021
Orbit: 907 x 1074 km, 70.0° (Epoch: 16 June)

Event Time Altitude Azimuth Distance (km) Brightness Sun altitude
Rises 01:42:00 0° 325° (NW) 3,547 7.2 -16.7°
Reaches altitude 10° 01:44:39 10° 318° (NW) 2,599 6.4 -16.4°
Maximum altitude 01:50:07 39° 252° (WSW) 1,339 4.3 -15.8°
Enters shadow 01:53:37 21° 196° (SSW) 1,957 5.0 -15.5°
